Regional Weather Roundup
Issued by NWS Bismarck, ND

Home | Current Version | Previous Version | Text Only | Print | Product List | Glossary On
Versions: 1 2 3 4 5 6 7 8 9 10 11 12 13 14 15 16 17 18 19 20 21 22 23 24 25 26 27 28 29 30 31 32 33 34 35 36 37 38 39 40 41 42 43 44 45 46 47 48 49 50
000
ASUS43 KBIS 310859
RWRBIS

NWR BROADCAST TEXT
NATIONAL WEATHER SERVICE BISMARCK ND
400 AM CDT SUN AUG 31 2014

NOTE: "FAIR" INDICATES FEW OR NO CLOUDS BELOW 12,000 FEET WITH NO
SIGNIFICANT WEATHER AND/OR OBSTRUCTIONS TO VISIBILITY.


CITY           SKY/WX    TMP DP  RH WIND       PRES   REMARKS
WILLISTON      CLOUDY    57  56  96 NW7       29.67S
MINOT          NOT AVBL
MINOT AFB      LGT RAIN  59  59 100 SE7       29.62F
BISMARCK       CLOUDY    62  60  93 CALM      29.63R
DICKINSON      NOT AVBL
GARRISON         N/A     62  61  96 CALM      29.62F
HETTINGER ARPT CLOUDY    58  56  93 W8        29.70R
JAMESTOWN      NOT AVBL
CARRINGTON     CLOUDY    59  59 100 E10G16    29.63F
CROSBY         FAIR      55  55 100 W3        29.66F FOG
HARVEY         PTSUNNY   59  59 100 E12       29.60F
LINTON         CLOUDY    61  61 100 SE7       29.61F
RUGBY          FAIR      59  59 100 E9        29.62F
WATFORD CITY   PTSUNNY   57  57 100 W9        29.65F
$$

CITY           SKY/WX    TMP DP  RH WIND       PRES   REMARKS
GRAND FORKS    CLOUDY    60  59  96 S6        29.73S
GRAND FORKS AF CLOUDY    57  57 100 S3        29.74R
DEVILS LAKE    CLOUDY    61  55  82 SE13      29.64F
FARGO          CLOUDY    63  59  87 SE13      29.70F
CAVALIER       PTSUNNY   57  57 100 SE7       29.72S
GRAFTON        PTSUNNY   57  57 100 SE6       29.72F
GWINNER        CLOUDY    63  63 100 NE8       29.69S
LANGDON        FAIR      57  55  94 SE8       29.70F
$$

CITY           SKY/WX    TMP DP  RH WIND       PRES   REMARKS
ABERDEEN       MOCLDY    63  61  93 S7        29.61F
MOBRIDGE       PTCLDY    62  62 100 E7        29.58F
BUFFALO          N/A     57  55  93 W13       29.65F
RAPID CITY     CLEAR     55  53  93 W3        29.76R
GLASGOW        CLEAR     53  52  96 NE8       29.70S
SIDNEY         MOCLDY    55  54  94 W5        29.70S
WOLF POINT     FOG       54  52  93 SW5       29.68F VSB 3/4
GLENDIVE       MOCLDY    55  54  94 SW5       29.72F
MILES CITY     CLOUDY    61 N/A N/A SW3       29.72F
BAKER          CLOUDY    58  56  93 W7        29.73F
$$

CITY           SKY/WX    TMP DP  RH WIND       PRES   REMARKS
BILLINGS       CLOUDY    57  47  69 SW8       29.80F
GREAT FALLS    MOCLDY    50  40  68 S5        29.81R
$$




USA.gov is the U.S. government's official web portal to all federal, state and local government web resources and services.